Regional Weather Roundup
Issued by NWS

Home | Current Version | Previous Version | Text Only | Print | Product List | Glossary Off
Versions: 1 2 3 4 5 6 7 8 9 10 11 12 13 14 15 16 17 18 19 20 21 22 23 24 25 26 27 28 29

000
ASUS45 KPSR 040010
RWRAZ

ARIZONA HOURLY REGIONAL WEATHER ROUNDUP
NATIONAL WEATHER SERVICE PHOENIX AZ
500 PM MST TUE MAY 03 2016

NOTE: FAIR INDICATES FEW OR NO CLOUDS BELOW 12,000 FEET WITH NO
SIGNIFICANT WEATHER AND/OR OBSTRUCTIONS TO VISIBILITY.

AZZ001>003-036-040100-
NORTHWEST ARIZONA

CITY           SKY/WX    TMP DP  RH WIND       PRES   REMARKS
BULLHEAD CITY  SUNNY     91  32  12 N8        29.87F
KINGMAN        SUNNY     83  27  13 S14       29.99F
6HR MIN TEMP:  74; 6HR MAX TEMP:  84;

$$

AZZ004>008-015-016-018-040100-
NORTH CENTRAL ARIZONA

CITY           SKY/WX    TMP DP  RH WIND       PRES   REMARKS
GRAND CANYON   SUNNY     65  25  22 VRB7      30.23R
6HR MIN TEMP:  58; 6HR MAX TEMP:  67;

WILLIAMS       SUNNY     66  25  20 E10       30.26S
PRESCOTT       SUNNY     74  29  19 VRB7      30.09S
6HR MIN TEMP:  67; 6HR MAX TEMP:  75;

FLAGSTAFF      SUNNY     60  26  27 E14       30.23S
6HR MIN TEMP:  55; 6HR MAX TEMP:  62;

PAYSON         SUNNY     75  30  19 NE8G15    30.11S
PAGE           SUNNY     74  25  16 CALM      30.12F
6HR MIN TEMP:  65; 6HR MAX TEMP:  76;

$$

AZZ009>014-017-040100-
NORTHEAST ARIZONA

CITY           SKY/WX    TMP DP  RH WIND       PRES   REMARKS
WINSLOW        SUNNY     74  30  19 SE10      30.13S
6HR MIN TEMP:  62; 6HR MAX TEMP:  75;

SAINT JOHNS    SUNNY     72  28  19 N6        30.13F
6HR MIN TEMP:  63; 6HR MAX TEMP:  73;

WINDOW ROCK    SUNNY     66  28  24 SE8       30.22S
6HR MIN TEMP:  58; 6HR MAX TEMP:  68;

SHOW LOW       SUNNY     66  28  24 NE8       30.19S
$$

AZZ023-040100-
GREATER PHOENIX AREA

CITY           SKY/WX    TMP DP  RH WIND       PRES   REMARKS
PHOENIX        MOSUNNY   92  31  11 VRB6      29.82F
6HR MIN TEMP:  84; 6HR MAX TEMP:  94;

BUCKEYE        SUNNY     91  32  12 SE7       29.86S
GLENDALE       MOSUNNY   91  30  11 W5        29.85F
LUKE AFB       SUNNY     91  33  12 SW8       29.82F
6HR MIN TEMP:  86; 6HR MAX TEMP:  92;

DEER VALLEY    SUNNY     91  29  11 S10       29.84F
6HR MIN TEMP:  83; 6HR MAX TEMP:  92;

SCOTTSDALE     SUNNY     90  25   9 VRB3      29.85F
6HR MIN TEMP:  85; 6HR MAX TEMP:  94;

MESA-FALCON    SUNNY    N/A N/A N/A SW9       29.82F
MESA-GATEWAY   SUNNY     91  32  12 SW6       29.85F
CHANDLER       MOSUNNY   91  30  11 W8        29.84F
$$

AZZ027-028-040100-
SOUTHWEST MARICOPA COUNTY AND PINAL COUNTY

CITY           SKY/WX    TMP DP  RH WIND       PRES   REMARKS
CASA GRANDE    SUNNY     91  32  12 W9        29.88F
GILA BEND      SUNNY     92  26   9 VRB2      29.82F
6HR MIN TEMP:  86; 6HR MAX TEMP:  93;

$$

AZZ503-504-507>509-040100-
SOUTHEAST ARIZONA

CITY           SKY/WX    TMP DP  RH WIND       PRES   REMARKS
TUCSON         SUNNY     90  22   8 CALM      29.92F
6HR MIN TEMP:  81; 6HR MAX TEMP:  91;

DAVIS-MONTHAN  SUNNY     87  23   9 VRB1      29.90F
6HR MIN TEMP:  81; 6HR MAX TEMP:  89;

NOGALES        SUNNY     85  21   9 CALM      29.96F
6HR MIN TEMP:  79; 6HR MAX TEMP:  87;

SIERRA VISTA   SUNNY     83  14   7 W13G20    30.02F
6HR MIN TEMP:  75; 6HR MAX TEMP:  83;

DOUGLAS        SUNNY     84  19   9 N5        29.98F
6HR MIN TEMP:  77; 6HR MAX TEMP:  87;

SAFFORD        SUNNY     87  26  11 N7        29.94F
6HR MIN TEMP:  77; 6HR MAX TEMP:  87;

$$

AZZ020-021-025-026-031-040100-
SOUTHWEST ARIZONA

CITY           SKY/WX    TMP DP  RH WIND       PRES   REMARKS
YUMA           MOSUNNY   94  32  11 SW6       29.80F
6HR MIN TEMP:  88; 6HR MAX TEMP:  95;

$$

CAZ031-033-041-043-047-048-061-040100-
SOUTHERN CALIFORNIA

CITY           SKY/WX    TMP DP  RH WIND       PRES   REMARKS
DOWNTOWN L.A.  PTSUNNY   69  56  62 VRB5      29.90R
6HR MIN TEMP:  68; 6HR MAX TEMP:  77;

L.A. AIRPORT   CLOUDY    64  57  78 W15       29.91F
6HR MIN TEMP:  64; 6HR MAX TEMP:  69;

SAN DIEGO      PTSUNNY   67  54  63 W8        29.94F
6HR MIN TEMP:  67; 6HR MAX TEMP:  70;

BURBANK        PTSUNNY   81  49  32 S8        29.89S
6HR MIN TEMP:  76; 6HR MAX TEMP:  85;

ONTARIO        PTSUNNY   85  45  24 W14       29.88F
6HR MIN TEMP:  79; 6HR MAX TEMP:  92;

RIVERSIDE      PTSUNNY   85  39  19 W14G20    29.87F
6HR MIN TEMP:  82; 6HR MAX TEMP:  92;

PALM SPRINGS   MOSUNNY   93  30  10 SW6       29.83F
6HR MIN TEMP:  88; 6HR MAX TEMP:  95;

EL CENTRO NAS  MOSUNNY   93  31  11 VRB3      29.82F
6HR MIN TEMP:  88; 6HR MAX TEMP:  95;

IMPERIAL       SUNNY     94  34  12 VRB5      29.80F
6HR MIN TEMP:  89; 6HR MAX TEMP:  97;

BLYTHE         SUNNY     93  30  10 NW3       29.83F
6HR MIN TEMP:  86; 6HR MAX TEMP:  95;

NEEDLES        SUNNY     92  30  11 CALM      29.85F
6HR MIN TEMP:  85; 6HR MAX TEMP:  94;

$$

NVZ020-UTZ003-040100-
SOUTHERN NEVADA-UTAH

CITY           SKY/WX    TMP DP  RH WIND       PRES   REMARKS
LAS VEGAS      MOSUNNY   84  27  12 CALM      29.93F
6HR MIN TEMP:  76; 6HR MAX TEMP:  85;

SALT LAKE CITY MOSUNNY   73  27  18 W9        30.13F
6HR MIN TEMP:  67; 6HR MAX TEMP:  75;

$$

NMZ009-TXZ055-040100-
NEW MEXICO-WEST TEXAS

CITY           SKY/WX    TMP DP  RH WIND       PRES   REMARKS
ALBUQUERQUE    MOSUNNY   73  23  15 N8        30.15S
6HR MIN TEMP:  65; 6HR MAX TEMP:  73;

EL PASO        MOSUNNY   82  25  12 CALM      30.03R
6HR MIN TEMP:  73; 6HR MAX TEMP:  84;

$$


........................KEY........................
SKY/WX - SKY CONDITION/WEATHER
TMP    - TEMPERATURE IN FAHRENHEIT
DP     - DEW POINT IN FAHRENHEIT
RH     - RELATIVE HUMIDITY IN PERCENT
WIND   - DIRECTION AND SPEED IN MILES PER HOUR (MPH)
VRB    - VARIABLE WIND DIRECTION
PRES   - MEAN SEA LEVEL PRESSURE IN INCHES OF MERCURY
         F - FALLING PRESSURE   R - RISING PRESSURE
         S - STEADY PRESSURE
VSB    - VISIBILITY IN MILES
HX     - HEAT INDEX IN FAHRENHEIT
WCI    - WIND CHILL INDEX IN FAHRENHEIT
TC     - TEMPERATURE IN CELSIUS WHICH IS ALSO KNOWN AS
         TEMPERATURE IN CENTIGRADE
AFB    - AIR FORCE BASE
         LUKE AFB IS LUKE AIR FORCE BASE
         DAVIS-MONTHAN IS DAVIS-MONTHAN AIR FORCE BASE
NAS    - NAVAL AIR STATION
         EL CENTRO NAS IS EL CENTRO NAVAL AIR STATION
N/A    - NOT AVAILABLE





USA.gov is the U.S. government's official web portal to all federal, state and local government web resources and services.